Tracking 19794 objects as of 23-Jul-2019
HD Live streaming from Space Station
objects crossing your sky now

MARISAT 1

Track MARISAT 1 now!
MARISAT 1 is classified as:


NORAD ID: 8697
Int'l Code: 1976-017A
Perigee: 36,046.4 km
Apogee: 36,142.1 km
Inclination: 11.4 °
Period: 1,451.5 minutes
Semi major axis: 42465 km
RCS: 5.8066 m2 (large)
Launch date: February 19, 1976
Source: United States (US)
Launch site: AIR FORCE EASTERN TEST RANGE (AFETR)
aabbcc
Your satellite tracking list
Your tracking list is empty




NASA's NSSDC Master Catalog

Two Line Element Set (TLE):
1  8697U 76017A   19202.13799426 -.00000252  00000-0  00000+0 0  9995
2  8697  11.4429 318.4631 0011270 133.0876 229.2227  0.99209361157051
Source of the keplerian elements: AFSPC